Simultaneous Nadir Overpasses (SNOs) Predictions

Prediction of SNOs between AURA and NPP Satellite Orbit:

Table of predicted SNOs for the next 14.0 days since TLE Epoch: 10/2/2021
Index Date (AURA) Time (AURA) Lat,Lon (AURA) SZA (AURA ) Date (NPP) Time (NPP) Lat,Lon (NPP) SZA (NPP ) Distance(km) Time Diff (sec)
1 10/02/2021 19:08:42 79.30, 148.32 96.01 10/02/2021 19:08:40 79.30, 148.19 96.04 2.66 2
2 10/02/2021 19:57:19 -80.95, -28.99 86.63 10/02/2021 19:58:33 -80.74, -28.45 86.78 24.75 74
3 10/05/2021 10:35:49 -79.20, 95.90 82.89 10/05/2021 10:34:54 -79.21, 96.03 82.88 3.08 55
4 10/05/2021 11:25:09 79.43, -94.96 96.82 10/05/2021 11:25:32 79.42, -95.02 96.81 1.30 23
5 10/08/2021 02:52:17 -79.25,-147.95 81.98 10/08/2021 02:51:48 -79.24,-147.99 81.95 1.06 29
6 10/08/2021 03:41:35 79.55, 21.72 97.63 10/08/2021 03:42:23 79.55, 21.77 97.58 1.16 48
7 10/10/2021 19:08:43 -79.40, -31.08 81.22 10/10/2021 19:08:39 -79.40, -30.97 81.23 2.23 4
8 10/10/2021 19:58:00 79.73, 138.90 98.34 10/10/2021 19:59:14 79.70, 138.85 98.30 3.33 74
9 10/13/2021 10:35:53 79.10, -84.76 100.13 10/13/2021 10:34:58 79.09, -84.89 100.20 2.92 55



Historial Predications of SNOs between AURA and NPP
